📊 Raw Sensor Data

Showing records 42176 to 42200 of 84,996 total

ID Distance (ft) Battery V Battery A Int Temp (°F) Int Humid (%) Ext Temp (°F) Solar V RSSI SNR Time Stamp
42833 15.5 4.14 0 94 41 88 5.10 -71 7 06/07/2025 02:30 PM
42832 15.5 4.01 0 93 42 86 5.10 -74 8 06/07/2025 02:15 PM
42831 15.5 4.02 0 91 42 85 5.10 -72 7 06/07/2025 02:00 PM
42830 15.4 4.01 0 90 42 83 5.10 -74 7 06/07/2025 01:45 PM
42829 15.5 4.01 0 89 42 83 5.10 -71 8 06/07/2025 01:30 PM
42828 15.5 4.02 0 88 42 83 5.10 -71 8 06/07/2025 01:15 PM
42827 15.5 4.01 0 86 42 81 5.10 -72 7 06/07/2025 01:00 PM
42826 15.5 4.02 0 85 42 81 5.10 -69 7 06/07/2025 12:45 PM
42825 15.5 4.01 0 83 43 80 5.10 -70 8 06/07/2025 12:30 PM
42824 15.5 4.04 0 81 43 81 5.10 -70 8 06/07/2025 12:15 PM
42823 15.5 4.01 0 80 43 78 5.10 -70 7 06/07/2025 12:00 PM
42822 15.5 4.14 0 80 43 78 5.10 -69 7 06/07/2025 11:45 AM
42821 15.5 4.01 0 79 43 80 5.10 -69 8 06/07/2025 11:30 AM
42820 15.5 4.01 0 77 43 77 5.10 -69 8 06/07/2025 11:15 AM
42819 15.5 4.01 0 76 43 76 5.10 -72 7 06/07/2025 11:00 AM
42818 15.5 4.01 0 76 43 75 5.10 -70 8 06/07/2025 10:45 AM
42817 15.5 4.01 0 75 43 73 5.10 -69 8 06/07/2025 10:30 AM
42816 15.5 4.01 0 74 43 75 5.10 -69 7 06/07/2025 10:15 AM
42815 15.5 4.01 0 73 43 74 5.10 -73 8 06/07/2025 10:00 AM
42814 15.5 4.01 0 73 43 71 5.10 -69 8 06/07/2025 09:45 AM
42813 15.5 4.02 0 72 43 75 5.10 -68 8 06/07/2025 09:30 AM
42812 15.5 4.07 0 71 43 73 5.10 -71 8 06/07/2025 09:15 AM
42811 15.5 4.01 0 70 43 71 5.10 -69 8 06/07/2025 09:00 AM
42810 15.5 4.10 0 69 43 74 5.10 -70 7 06/07/2025 08:45 AM
42809 15.5 4.01 0 68 43 70 5.10 -69 8 06/07/2025 08:30 AM